Regional Weather Roundup
Issued by NWS Goodland, KS

Home | Current Version | Previous Version | Graphics & Text | Print | Product List | Glossary On
Versions: 1 2 3 4 5 6 7 8 9 10 11 12 13 14 15 16 17 18 19 20 21 22 23 24 25 26 27 28 29 30 31 32 33 34 35 36 37 38 39 40 41 42 43 44 45 46 47 48 49 50
000
ASUS43 KGLD 291208
RWRGLD

GOODLAND FORECAST AREA HOURLY WEATHER ROUNDUP
NATIONAL WEATHER SERVICE GOODLAND KS
600 AM MDT WED OCT 29 2014

...OFFICIAL OBSERVATIONS...

CITY           SKY/WX    TMP DP  RH WIND       PRES   REMARKS
GOODLAND KS    CLEAR     29  23  78 W6        30.18S
HILL CITY KS   CLEAR     29  23  78 CALM      30.21S
IMPERIAL NEB   PTCLDY    27  20  75 CALM      30.16F
MCCOOK NEB     CLEAR     23  20  88 W5        30.20S
AKRON CO       PTCLDY    35  24  64 W10       30.16S
BURLINGTON CO  CLEAR     32  25  75 W10       30.17S
LIMON CO       CLEAR     23  19  85 N5        30.20S
$$

...UNOFFICIAL OBSERVATIONS...

CITY           SKY/WX    TMP DP  RH WIND       PRES   REMARKS
COLBY KS       CLEAR     37  27  65 S3        30.18S
SHARON SPRINGS   N/A     31  24  76 CALM        N/A
TRIBUNE KS     CLEAR     37  34  87 SW7       30.18F
TRENTON NEB      N/A     35  32  89 CALM        N/A
KIT CARSON CO    N/A     28  22  76 CALM        N/A
$$



USA.gov is the U.S. government's official web portal to all federal, state and local government web resources and services.